GW2215 Weather Reports


time (UTC)temp
F
wind
direction
speed
knots
gust
knots
rain 1hr
in
rain 24hr
in
rain mn
in
humidity
%
barometer
mb
20260504120124 53 301 3.5 9.6 0.00 0.00 0.00 74 1008.3
20260504081529 46 261 0.0 2.6 0.00 0.00 0.00 70 1008.4
20260504050006 50 282 0.9 3.5 0.00 0.00 0.00 50 1008.2
20260504044603 50 311 0.0 0.0 0.00 0.00 0.00 50 1008.1
20260504043057 50 311 0.0 1.7 0.00 0.00 0.00 49 1008.0
20260504041555 51 313 0.0 0.0 0.00 0.00 0.00 49 1007.9
20260504040055 51 313 0.0 0.0 0.00 0.00 0.00 49 1007.9
20260504034607 51 313 0.0 1.7 0.00 0.00 0.00 48 1007.8
20260504033050 51 313 0.9 1.7 0.00 0.00 0.00 47 1007.6
20260504031549 52 313 0.0 1.7 0.00 0.00 0.00 47 1007.7
20260504030148 52 313 0.0 1.7 0.00 0.00 0.00 47 1007.5
20260504024545 52 315 0.0 2.6 0.00 0.00 0.00 46 1007.8
20260504023044 53 305 0.0 2.6 0.00 0.00 0.00 45 1007.6
20260504021543 53 301 0.0 2.6 0.00 0.00 0.00 44 1007.6
20260504020043 54 298 0.0 3.5 0.00 0.00 0.00 44 1007.5
20260504014558 54 306 0.9 4.3 0.00 0.00 0.00 42 1007.4
20260504013045 54 299 0.0 2.6 0.00 0.00 0.00 42 1007.5
20260504011543 55 294 0.0 2.6 0.00 0.00 0.00 41 1007.0
20260504010042 55 290 0.0 0.9 0.00 0.00 0.00 40 1006.8
20260504004538 56 290 0.0 1.7 0.00 0.00 0.00 39 1006.8
20260504003048 57 295 0.0 2.6 0.00 0.00 0.00 37 1006.5
20260504001534 58 313 1.7 4.3 0.00 0.00 0.00 36 1006.3
20260504000034 58 292 1.7 7.0 0.00 0.00 0.00 36 1006.4
20260503234544 59 319 1.7 7.0 0.00 0.00 0.00 35 1006.3
20260503233031 59 310 0.9 7.0 0.00 0.00 0.00 34 1006.3
20260503231529 60 308 5.2 9.6 0.00 0.00 0.00 32 1006.1
20260503230029 60 279 3.5 8.7 0.00 0.00 0.00 32 1006.0
20260503224528 60 9 2.6 10.4 0.00 0.00 0.00 31 1005.9
20260503223157 60 42 7.0 13.0 0.00 0.00 0.00 30 1005.9
20260503221557 61 298 4.3 12.2 0.00 0.00 0.00 29 1006.1
20260503220055 61 15 5.2 12.2 0.00 0.00 0.00 30 1005.8
20260503214552 60 38 3.5 9.6 0.00 0.00 0.00 31 1006.1
20260503213057 60 299 4.3 17.4 0.00 0.00 0.00 31 1005.8
20260503211553 60 13 8.7 19.1 0.00 0.00 0.00 31 1005.9
20260503210100 59 335 7.0 14.8 0.00 0.00 0.00 31 1005.9
20260503204545 59 342 4.3 15.6 0.00 0.00 0.00 31 1006.0
20260503203050 60 18 4.3 16.5 0.00 0.00 0.00 31 1006.1
20260503201542 59 355 4.3 13.9 0.00 0.00 0.00 32 1006.0
20260503200042 59 346 7.0 14.8 0.00 0.00 0.00 32 1006.3
20260503194538 58 355 7.0 13.9 0.00 0.00 0.00 31 1006.1
20260503193036 58 311 4.3 10.4 0.00 0.00 0.00 32 1006.3
20260503191533 58 346 7.0 13.9 0.00 0.00 0.00 31 1006.6
20260503190031 58 24 7.0 13.0 0.00 0.00 0.00 32 1006.3
20260503184531 57 300 7.0 13.0 0.00 0.00 0.00 32 1006.6
20260503183039 57 33 3.5 13.9 0.00 0.00 0.00 33 1006.6
20260503181524 56 5 6.1 11.3 0.00 0.00 0.00 33 1006.9
20260503180021 56 360 6.1 13.9 0.00 0.00 0.00 33 1007.1
20260503174517 55 11 6.1 10.4 0.00 0.00 0.00 34 1007.1
20260503173017 54 30 7.0 13.9 0.00 0.00 0.00 35 1007.2
20260503171514 54 49 5.2 11.3 0.00 0.00 0.00 35 1007.3